Time,TemperatureF,DewpointF,PressureIn,WindDirection,WindDirectionDegrees,WindSpeedMPH,WindSpeedGustMPH,Humidity,HourlyPrecipIn,Conditions,Clouds,dailyrainin,SoftwareType,DateUTC
2013-03-12 00:02:00,23.0,-99.9,-100.00,NW,304,15.0,24.0,-999,-99.99,,,-99.99,,2013-03-12 06:02:00,
2013-03-12 00:12:00,23.0,-99.9,-100.00,WNW,300,15.0,27.0,-999,-99.99,,,-99.99,,2013-03-12 06:12:00,
2013-03-12 00:22:00,23.0,-99.9,-100.00,WNW,300,15.0,27.0,-999,-99.99,,,-99.99,,2013-03-12 06:22:00,
2013-03-12 00:32:00,23.0,-99.9,-100.00,WNW,300,15.0,27.0,-999,-99.99,,,-99.99,,2013-03-12 06:32:00,
2013-03-12 00:42:00,23.0,-99.9,-100.00,NW,304,14.0,22.0,-999,-99.99,,,-99.99,,2013-03-12 06:42:00,
2013-03-12 00:52:00,23.0,-99.9,-100.00,NW,304,14.0,22.0,-999,-99.99,,,-99.99,,2013-03-12 06:52:00,
2013-03-12 01:02:00,23.0,-99.9,-100.00,WNW,302,16.0,23.0,-999,-99.99,,,-99.99,,2013-03-12 07:02:00,
2013-03-12 01:12:00,23.0,-99.9,-100.00,WNW,298,15.0,24.0,-999,-99.99,,,-99.99,,2013-03-12 07:12:00,
2013-03-12 01:22:00,23.0,-99.9,-100.00,WNW,298,15.0,24.0,-999,-99.99,,,-99.99,,2013-03-12 07:22:00,
2013-03-12 01:32:00,23.0,-99.9,-100.00,WNW,298,15.0,24.0,-999,-99.99,,,-99.99,,2013-03-12 07:32:00,
2013-03-12 01:42:00,23.0,-99.9,-100.00,WNW,294,15.0,28.0,-999,-99.99,,,-99.99,,2013-03-12 07:42:00,
2013-03-12 01:53:00,23.0,-99.9,-100.00,WNW,294,15.0,28.0,-999,-99.99,,,-99.99,,2013-03-12 07:53:00,
2013-03-12 02:02:00,23.0,-99.9,-100.00,WNW,297,15.0,31.0,-999,-99.99,,,-99.99,,2013-03-12 08:02:00,
2013-03-12 02:13:00,23.0,-99.9,-100.00,WNW,299,13.0,22.0,-999,-99.99,,,-99.99,,2013-03-12 08:13:00,
2013-03-12 02:22:00,23.0,-99.9,-100.00,WNW,299,13.0,22.0,-999,-99.99,,,-99.99,,2013-03-12 08:22:00,
2013-03-12 02:33:00,23.0,-99.9,-100.00,WNW,299,13.0,22.0,-999,-99.99,,,-99.99,,2013-03-12 08:33:00,
2013-03-12 02:43:00,23.0,-99.9,-100.00,WNW,299,11.0,23.0,-999,-99.99,,,-99.99,,2013-03-12 08:43:00,
2013-03-12 02:52:00,23.0,-99.9,-100.00,WNW,299,11.0,23.0,-999,-99.99,,,-99.99,,2013-03-12 08:52:00,
2013-03-12 03:03:00,23.0,-99.9,-100.00,WNW,301,12.0,25.0,-999,-99.99,,,-99.99,,2013-03-12 09:03:00,
2013-03-12 03:12:00,23.0,-99.9,-100.00,WNW,291,13.0,24.0,-999,-99.99,,,-99.99,,2013-03-12 09:12:00,
2013-03-12 03:22:00,23.0,-99.9,-100.00,WNW,291,13.0,24.0,-999,-99.99,,,-99.99,,2013-03-12 09:22:00,
2013-03-12 03:33:00,23.0,-99.9,-100.00,WNW,291,13.0,24.0,-999,-99.99,,,-99.99,,2013-03-12 09:33:00,
2013-03-12 03:43:00,23.0,-99.9,-100.00,WNW,301,12.0,28.0,-999,-99.99,,,-99.99,,2013-03-12 09:43:00,
2013-03-12 03:53:00,23.0,-99.9,-100.00,WNW,301,12.0,28.0,-999,-99.99,,,-99.99,,2013-03-12 09:53:00,
2013-03-12 04:02:00,23.0,-99.9,-100.00,WNW,298,13.0,22.0,-999,-99.99,,,-99.99,,2013-03-12 10:02:00,
2013-03-12 04:12:00,23.0,-99.9,-100.00,WNW,285,12.0,21.0,-999,-99.99,,,-99.99,,2013-03-12 10:12:00,
2013-03-12 04:23:00,23.0,-99.9,-100.00,WNW,285,12.0,21.0,-999,-99.99,,,-99.99,,2013-03-12 10:23:00,
2013-03-12 04:33:00,23.0,-99.9,-100.00,WNW,285,12.0,21.0,-999,-99.99,,,-99.99,,2013-03-12 10:33:00,
2013-03-12 04:42:00,23.0,-99.9,-100.00,WNW,288,10.0,17.0,-999,-99.99,,,-99.99,,2013-03-12 10:42:00,
2013-03-12 04:53:00,23.0,-99.9,-100.00,WNW,288,10.0,17.0,-999,-99.99,,,-99.99,,2013-03-12 10:53:00,
2013-03-12 05:02:00,23.0,-99.9,-100.00,WNW,288,10.0,18.0,-999,-99.99,,,-99.99,,2013-03-12 11:02:00,
2013-03-12 05:12:00,23.0,-99.9,-100.00,WNW,295,8.0,15.0,-999,-99.99,,,-99.99,,2013-03-12 11:12:00,
2013-03-12 05:22:00,23.0,-99.9,-100.00,WNW,295,8.0,15.0,-999,-99.99,,,-99.99,,2013-03-12 11:22:00,
2013-03-12 05:33:00,23.0,-99.9,-100.00,WNW,295,8.0,15.0,-999,-99.99,,,-99.99,,2013-03-12 11:33:00,
2013-03-12 05:43:00,23.0,-99.9,-100.00,WNW,287,8.0,13.0,-999,-99.99,,,-99.99,,2013-03-12 11:43:00,
2013-03-12 05:52:00,23.0,-99.9,-100.00,WNW,287,8.0,13.0,-999,-99.99,,,-99.99,,2013-03-12 11:52:00,
2013-03-12 06:03:00,23.0,-99.9,-100.00,WNW,291,9.0,16.0,-999,-99.99,,,-99.99,,2013-03-12 12:03:00,
2013-03-12 06:12:00,22.0,-99.9,-100.00,WNW,302,9.0,15.0,-999,-99.99,,,-99.99,,2013-03-12 12:12:00,
2013-03-12 06:22:00,22.0,-99.9,-100.00,WNW,302,9.0,15.0,-999,-99.99,,,-99.99,,2013-03-12 12:22:00,
2013-03-12 06:32:00,22.0,-99.9,-100.00,WNW,302,9.0,15.0,-999,-99.99,,,-99.99,,2013-03-12 12:32:00,
2013-03-12 06:42:00,22.0,-99.9,-100.00,WNW,301,10.0,16.0,-999,-99.99,,,-99.99,,2013-03-12 12:42:00,
2013-03-12 06:52:00,22.0,-99.9,-100.00,WNW,301,10.0,16.0,-999,-99.99,,,-99.99,,2013-03-12 12:52:00,
2013-03-12 07:02:00,22.0,-99.9,-100.00,WNW,302,9.0,14.0,-999,-99.99,,,-99.99,,2013-03-12 13:02:00,
2013-03-12 07:12:00,22.0,-99.9,-100.00,WNW,301,10.0,15.0,-999,-99.99,,,-99.99,,2013-03-12 13:12:00,
2013-03-12 07:22:00,22.0,-99.9,-100.00,WNW,301,10.0,15.0,-999,-99.99,,,-99.99,,2013-03-12 13:22:00,
2013-03-12 07:33:00,22.0,-99.9,-100.00,WNW,301,10.0,15.0,-999,-99.99,,,-99.99,,2013-03-12 13:33:00,
2013-03-12 07:43:00,22.0,-99.9,-100.00,NW,306,11.0,17.0,-999,-99.99,,,-99.99,,2013-03-12 13:43:00,
2013-03-12 07:53:00,22.0,-99.9,-100.00,NW,306,11.0,17.0,-999,-99.99,,,-99.99,,2013-03-12 13:53:00,
2013-03-12 08:03:00,22.0,-99.9,-100.00,NW,304,11.0,15.0,-999,-99.99,,,-99.99,,2013-03-12 14:03:00,
2013-03-12 08:12:00,22.0,-99.9,-100.00,WNW,285,10.0,18.0,-999,-99.99,,,-99.99,,2013-03-12 14:12:00,
2013-03-12 08:22:00,22.0,-99.9,-100.00,WNW,285,10.0,18.0,-999,-99.99,,,-99.99,,2013-03-12 14:22:00,
2013-03-12 08:33:00,22.0,-99.9,-100.00,WNW,285,10.0,18.0,-999,-99.99,,,-99.99,,2013-03-12 14:33:00,
2013-03-12 08:43:00,22.0,-99.9,-100.00,WNW,283,13.0,20.0,-999,-99.99,,,-99.99,,2013-03-12 14:43:00,
2013-03-12 08:53:00,22.0,-99.9,-100.00,WNW,283,13.0,20.0,-999,-99.99,,,-99.99,,2013-03-12 14:53:00,
2013-03-12 09:03:00,22.0,-99.9,-100.00,WNW,283,13.0,20.0,-999,-99.99,,,-99.99,,2013-03-12 15:03:00,
2013-03-12 09:13:00,22.0,-99.9,-100.00,West,280,16.0,20.0,-999,-99.99,,,-99.99,,2013-03-12 15:13:00,
2013-03-12 09:23:00,22.0,-99.9,-100.00,West,280,16.0,20.0,-999,-99.99,,,-99.99,,2013-03-12 15:23:00,
2013-03-12 09:33:00,22.0,-99.9,-100.00,West,280,16.0,20.0,-999,-99.99,,,-99.99,,2013-03-12 15:33:00,
2013-03-12 09:43:00,23.0,-99.9,-100.00,WNW,288,14.0,21.0,-999,-99.99,,,-99.99,,2013-03-12 15:43:00,
2013-03-12 09:54:00,23.0,-99.9,-100.00,WNW,288,14.0,21.0,-999,-99.99,,,-99.99,,2013-03-12 15:54:00,
2013-03-12 10:03:00,24.0,-99.9,-100.00,WNW,283,15.0,22.0,-999,-99.99,,,-99.99,,2013-03-12 16:03:00,
2013-03-12 10:13:00,24.0,-99.9,-100.00,WNW,283,14.0,19.0,-999,-99.99,,,-99.99,,2013-03-12 16:13:00,
2013-03-12 10:23:00,24.0,-99.9,-100.00,WNW,283,14.0,19.0,-999,-99.99,,,-99.99,,2013-03-12 16:23:00,
2013-03-12 10:33:00,24.0,-99.9,-100.00,WNW,283,14.0,19.0,-999,-99.99,,,-99.99,,2013-03-12 16:33:00,
2013-03-12 10:43:00,25.0,-99.9,-100.00,West,280,7.0,14.0,-999,-99.99,,,-99.99,,2013-03-12 16:43:00,
2013-03-12 10:53:00,25.0,-99.9,-100.00,West,280,7.0,14.0,-999,-99.99,,,-99.99,,2013-03-12 16:53:00,
2013-03-12 11:03:00,25.0,-99.9,-100.00,West,280,7.0,14.0,-999,-99.99,,,-99.99,,2013-03-12 17:03:00,
2013-03-12 11:13:00,25.0,-99.9,-100.00,WNW,290,8.0,15.0,-999,-99.99,,,-99.99,,2013-03-12 17:13:00,
2013-03-12 11:23:00,25.0,-99.9,-100.00,WNW,290,8.0,15.0,-999,-99.99,,,-99.99,,2013-03-12 17:23:00,
2013-03-12 11:34:00,25.0,-99.9,-100.00,WNW,290,8.0,15.0,-999,-99.99,,,-99.99,,2013-03-12 17:34:00,
2013-03-12 11:44:00,26.0,-99.9,-100.00,WNW,301,10.0,17.0,-999,-99.99,,,-99.99,,2013-03-12 17:44:00,
2013-03-12 11:54:00,26.0,-99.9,-100.00,WNW,301,10.0,17.0,-999,-99.99,,,-99.99,,2013-03-12 17:54:00,
2013-03-12 12:03:00,26.0,-99.9,-100.00,WNW,301,10.0,17.0,-999,-99.99,,,-99.99,,2013-03-12 18:03:00,
2013-03-12 12:13:00,28.0,-99.9,-100.00,WNW,300,6.0,13.0,-999,-99.99,,,-99.99,,2013-03-12 18:13:00,
2013-03-12 12:24:00,28.0,-99.9,-100.00,WNW,300,6.0,13.0,-999,-99.99,,,-99.99,,2013-03-12 18:24:00,
2013-03-12 12:33:00,28.0,-99.9,-100.00,WNW,300,6.0,13.0,-999,-99.99,,,-99.99,,2013-03-12 18:33:00,
2013-03-12 12:43:00,28.0,-99.9,-100.00,NW,307,9.0,15.0,-999,-99.99,,,-99.99,,2013-03-12 18:43:00,
2013-03-12 12:54:00,28.0,-99.9,-100.00,NW,307,9.0,15.0,-999,-99.99,,,-99.99,,2013-03-12 18:54:00,
2013-03-12 13:04:00,28.0,-99.9,-100.00,WNW,298,9.0,16.0,-999,-99.99,,,-99.99,,2013-03-12 19:04:00,
2013-03-12 13:13:00,28.0,-99.9,-100.00,WNW,291,10.0,17.0,-999,-99.99,,,-99.99,,2013-03-12 19:13:00,
2013-03-12 13:23:00,28.0,-99.9,-100.00,WNW,291,10.0,17.0,-999,-99.99,,,-99.99,,2013-03-12 19:23:00,
2013-03-12 13:33:00,28.0,-99.9,-100.00,WNW,291,10.0,17.0,-999,-99.99,,,-99.99,,2013-03-12 19:33:00,
2013-03-12 13:44:00,30.0,-99.9,-100.00,WNW,293,6.0,11.0,-999,-99.99,,,-99.99,,2013-03-12 19:44:00,
2013-03-12 13:53:00,30.0,-99.9,-100.00,WNW,293,6.0,11.0,-999,-99.99,,,-99.99,,2013-03-12 19:53:00,
2013-03-12 14:02:00,30.0,-99.9,-100.00,WNW,293,6.0,11.0,-999,-99.99,,,-99.99,,2013-03-12 20:02:00,
2013-03-12 14:13:00,33.0,-99.9,-100.00,WNW,296,4.0,11.0,-999,-99.99,,,-99.99,,2013-03-12 20:13:00,
2013-03-12 14:23:00,33.0,-99.9,-100.00,WNW,296,4.0,11.0,-999,-99.99,,,-99.99,,2013-03-12 20:23:00,
2013-03-12 14:33:00,33.0,-99.9,-100.00,WNW,296,4.0,11.0,-999,-99.99,,,-99.99,,2013-03-12 20:33:00,
2013-03-12 14:42:00,32.0,-99.9,-100.00,WNW,286,6.0,12.0,-999,-99.99,,,-99.99,,2013-03-12 20:42:00,
2013-03-12 14:53:00,32.0,-99.9,-100.00,WNW,286,6.0,12.0,-999,-99.99,,,-99.99,,2013-03-12 20:53:00,
2013-03-12 15:03:00,33.0,-99.9,-100.00,WSW,252,4.0,8.0,-999,-99.99,,,-99.99,,2013-03-12 21:03:00,
2013-03-12 15:13:00,33.0,-99.9,-100.00,West,279,2.0,6.0,-999,-99.99,,,-99.99,,2013-03-12 21:13:00,
2013-03-12 15:23:00,33.0,-99.9,-100.00,West,279,2.0,6.0,-999,-99.99,,,-99.99,,2013-03-12 21:23:00,
2013-03-12 15:33:00,33.0,-99.9,-100.00,West,279,2.0,6.0,-999,-99.99,,,-99.99,,2013-03-12 21:33:00,
2013-03-12 15:43:00,33.0,-99.9,-100.00,West,263,5.0,9.0,-999,-99.99,,,-99.99,,2013-03-12 21:43:00,
2013-03-12 15:53:00,33.0,-99.9,-100.00,West,263,5.0,9.0,-999,-99.99,,,-99.99,,2013-03-12 21:53:00,
2013-03-12 16:03:00,34.0,-99.9,-100.00,WNW,291,5.0,14.0,-999,-99.99,,,-99.99,,2013-03-12 22:03:00,
2013-03-12 16:13:00,34.0,-99.9,-100.00,West,267,5.0,12.0,-999,-99.99,,,-99.99,,2013-03-12 22:13:00,
2013-03-12 16:23:00,34.0,-99.9,-100.00,West,267,5.0,12.0,-999,-99.99,,,-99.99,,2013-03-12 22:23:00,
2013-03-12 16:33:00,34.0,-99.9,-100.00,West,267,5.0,12.0,-999,-99.99,,,-99.99,,2013-03-12 22:33:00,
2013-03-12 16:43:00,33.0,-99.9,-100.00,West,264,5.0,10.0,-999,-99.99,,,-99.99,,2013-03-12 22:43:00,
2013-03-12 16:54:00,33.0,-99.9,-100.00,West,264,5.0,10.0,-999,-99.99,,,-99.99,,2013-03-12 22:54:00,
2013-03-12 17:03:00,33.0,-99.9,-100.00,West,266,4.0,8.0,-999,-99.99,,,-99.99,,2013-03-12 23:03:00,
2013-03-12 17:13:00,33.0,-99.9,-100.00,WNW,301,4.0,9.0,-999,-99.99,,,-99.99,,2013-03-12 23:13:00,
2013-03-12 17:23:00,33.0,-99.9,-100.00,WNW,301,4.0,9.0,-999,-99.99,,,-99.99,,2013-03-12 23:23:00,
2013-03-12 17:34:00,33.0,-99.9,-100.00,WNW,301,4.0,9.0,-999,-99.99,,,-99.99,,2013-03-12 23:34:00,
2013-03-12 17:44:00,32.0,-99.9,-100.00,West,278,6.0,12.0,-999,-99.99,,,-99.99,,2013-03-12 23:44:00,
2013-03-12 17:53:00,32.0,-99.9,-100.00,West,278,6.0,12.0,-999,-99.99,,,-99.99,,2013-03-12 23:53:00,
2013-03-12 18:03:00,31.0,-99.9,-100.00,West,279,6.0,10.0,-999,-99.99,,,-99.99,,2013-03-13 00:03:00,
2013-03-12 18:13:00,31.0,-99.9,-100.00,West,279,6.0,12.0,-999,-99.99,,,-99.99,,2013-03-13 00:13:00,
2013-03-12 18:23:00,31.0,-99.9,-100.00,West,279,6.0,12.0,-999,-99.99,,,-99.99,,2013-03-13 00:23:00,
2013-03-12 18:33:00,31.0,-99.9,-100.00,West,279,6.0,12.0,-999,-99.99,,,-99.99,,2013-03-13 00:33:00,
2013-03-12 18:42:00,31.0,-99.9,-100.00,WSW,244,8.0,13.0,-999,-99.99,,,-99.99,,2013-03-13 00:42:00,
2013-03-12 18:54:00,31.0,-99.9,-100.00,WSW,244,8.0,13.0,-999,-99.99,,,-99.99,,2013-03-13 00:54:00,
2013-03-12 19:03:00,30.0,-99.9,-100.00,WSW,250,10.0,13.0,-999,-99.99,,,-99.99,,2013-03-13 01:03:00,
2013-03-12 19:13:00,29.0,-99.9,-100.00,WSW,244,8.0,13.0,-999,-99.99,,,-99.99,,2013-03-13 01:13:00,
2013-03-12 19:22:00,29.0,-99.9,-100.00,WSW,244,8.0,13.0,-999,-99.99,,,-99.99,,2013-03-13 01:22:00,
2013-03-12 19:33:00,29.0,-99.9,-100.00,WSW,244,8.0,13.0,-999,-99.99,,,-99.99,,2013-03-13 01:33:00,
2013-03-12 19:43:00,28.0,-99.9,-100.00,WSW,248,8.0,12.0,-999,-99.99,,,-99.99,,2013-03-13 01:43:00,
2013-03-12 19:53:00,28.0,-99.9,-100.00,WSW,248,8.0,12.0,-999,-99.99,,,-99.99,,2013-03-13 01:53:00,
2013-03-12 20:03:00,27.0,-99.9,-100.00,WSW,243,9.0,12.0,-999,-99.99,,,-99.99,,2013-03-13 02:03:00,
2013-03-12 20:12:00,26.0,-99.9,-100.00,West,259,8.0,11.0,-999,-99.99,,,-99.99,,2013-03-13 02:12:00,
2013-03-12 20:23:00,26.0,-99.9,-100.00,West,259,8.0,11.0,-999,-99.99,,,-99.99,,2013-03-13 02:23:00,
2013-03-12 20:33:00,26.0,-99.9,-100.00,West,259,8.0,11.0,-999,-99.99,,,-99.99,,2013-03-13 02:33:00,
2013-03-12 20:43:00,26.0,-99.9,-100.00,WSW,250,14.0,17.0,-999,-99.99,,,-99.99,,2013-03-13 02:43:00,
2013-03-12 20:53:00,26.0,-99.9,-100.00,WSW,250,14.0,17.0,-999,-99.99,,,-99.99,,2013-03-13 02:53:00,
2013-03-12 21:03:00,26.0,-99.9,-100.00,WSW,250,14.0,17.0,-999,-99.99,,,-99.99,,2013-03-13 03:03:00,
2013-03-12 21:13:00,26.0,-99.9,-100.00,WSW,255,13.0,17.0,-999,-99.99,,,-99.99,,2013-03-13 03:13:00,
2013-03-12 21:23:00,26.0,-99.9,-100.00,WSW,255,13.0,17.0,-999,-99.99,,,-99.99,,2013-03-13 03:23:00,
2013-03-12 21:33:00,26.0,-99.9,-100.00,WSW,255,13.0,17.0,-999,-99.99,,,-99.99,,2013-03-13 03:33:00,
2013-03-12 21:43:00,25.0,-99.9,-100.00,WSW,254,13.0,16.0,-999,-99.99,,,-99.99,,2013-03-13 03:43:00,
2013-03-12 21:53:00,25.0,-99.9,-100.00,WSW,254,13.0,16.0,-999,-99.99,,,-99.99,,2013-03-13 03:53:00,
2013-03-12 22:03:00,25.0,-99.9,-100.00,WSW,257,14.0,16.0,-999,-99.99,,,-99.99,,2013-03-13 04:03:00,
2013-03-12 22:13:00,25.0,-99.9,-100.00,WSW,258,14.0,17.0,-999,-99.99,,,-99.99,,2013-03-13 04:13:00,
2013-03-12 22:23:00,25.0,-99.9,-100.00,WSW,258,14.0,17.0,-999,-99.99,,,-99.99,,2013-03-13 04:23:00,
2013-03-12 22:32:00,25.0,-99.9,-100.00,WSW,258,14.0,17.0,-999,-99.99,,,-99.99,,2013-03-13 04:32:00,
2013-03-12 22:43:00,25.0,-99.9,-100.00,West,266,14.0,17.0,-999,-99.99,,,-99.99,,2013-03-13 04:43:00,
2013-03-12 22:53:00,25.0,-99.9,-100.00,West,266,14.0,17.0,-999,-99.99,,,-99.99,,2013-03-13 04:53:00,
2013-03-12 23:03:00,25.0,-99.9,-100.00,West,267,14.0,17.0,-999,-99.99,,,-99.99,,2013-03-13 05:03:00,
2013-03-12 23:13:00,25.0,-99.9,-100.00,West,270,14.0,18.0,-999,-99.99,,,-99.99,,2013-03-13 05:13:00,
2013-03-12 23:22:00,25.0,-99.9,-100.00,West,270,14.0,18.0,-999,-99.99,,,-99.99,,2013-03-13 05:22:00,
2013-03-12 23:33:00,25.0,-99.9,-100.00,West,270,14.0,18.0,-999,-99.99,,,-99.99,,2013-03-13 05:33:00,
2013-03-12 23:43:00,25.0,-99.9,-100.00,West,271,14.0,18.0,-999,-99.99,,,-99.99,,2013-03-13 05:43:00,
2013-03-12 23:53:00,25.0,-99.9,-100.00,West,271,14.0,18.0,-999,-99.99,,,-99.99,,2013-03-13 05:53:00,